User: anonymous   Login
Location: Unspecified
(0.0000°N, 0.0000°E)
Time: 17:10:27
(UTC+00:00)
Language:

AISSAT 2 - Orbit

View from above orbital plane
View from above orbital plane
View from above satellite
View from above satellite

Ground track
Ground track

The orbit data is extracted from the following two-line orbital elements,

1 40075U 14037G   21337.22146219  .00000361  00000-0  52048-4 0  9997
2 40075  98.4205 196.3643 0004582 233.1875 126.8909 14.82767751400575
Epoch (UTC): 03 December 2021 05:18:54
Eccentricity: 0.0004582
inclination: 98.4205°
perigee height: 617 km
apogee height: 624 km
right ascension of ascending node: 196.3643°
argument of perigee: 233.1875°
revolutions per day: 14.82767751
mean anomaly at epoch: 126.8909°
orbit number at epoch: 40057

The dashed part of the orbit path shows where the satellite is in the earth's shadow,  

DLR